Overview Statistics Trail Chart Weather Telemetry Raw packets
 

This is the latest recevied weather packets stored in our database for station/object WW6Q. If no packets are shown the sender has not sent any weather packets the latest 10 day(s).

<< 24 25 26 27 28 29 30 >>
Time Temp. Humidity Pressure Rain* Wind** Luminosity Snow
1788460869 34.44° C 54% 1013.7 hPa 0 mm - 670 W/m² -
1788460568 35° C 54% 1014 hPa 0 mm - 675 W/m² -
1788460263 34.44° C 53% 1014 hPa 0 mm - 692 W/m² -
1788459962 34.44° C 52% 1013.9 hPa 0 mm - 675 W/m² -
1788459658 34.44° C 56% 1014 hPa 0 mm - 695 W/m² -
1788459356 33.89° C 53% 1014.1 hPa 0 mm - 665 W/m² -
1788459051 33.33° C 58% 1014.1 hPa 0 mm - 670 W/m² -
1788458746 33.89° C 58% 1014.2 hPa 0 mm - 703 W/m² -
1788458441 33.89° C 55% 1014.2 hPa 0 mm - 739 W/m² -
1788458140 33.33° C 58% 1014.2 hPa 0 mm - 776 W/m² -
1788457857 33.33° C 60% 1014.2 hPa 0 mm - 808 W/m² -
1788457534 33.33° C 63% 1014.1 hPa 0 mm - 767 W/m² -
1788457229 33.89° C 58% 1014.3 hPa 0 mm - 734 W/m² -
1788456924 33.89° C 56% 1014.1 hPa 0 mm - 757 W/m² -
1788456621 33.89° C 57% 1013.9 hPa 0 mm - 752 W/m² -
1788456321 33.33° C 57% 1013.6 hPa 0 mm - 751 W/m² -
1788456016 33.33° C 56% 1014 hPa 0 mm - 725 W/m² -
1788455711 33.33° C 56% 1014.2 hPa 0 mm - 735 W/m² -
1788455407 33.89° C 58% 1013.7 hPa 0 mm - 671 W/m² -
1788455106 33.33° C 56% 1013.9 hPa 0 mm - 725 W/m² -
1788454801 32.78° C 57% 1013.9 hPa 0 mm - 711 W/m² -
1788454499 32.78° C 57% 1014 hPa 0 mm - 693 W/m² -
1788454194 33.33° C 60% 1014.1 hPa 0 mm - 685 W/m² -
1788453889 32.78° C 58% 1014.1 hPa 0 mm - 690 W/m² -
1788453589 32.78° C 59% 1014.1 hPa 0 mm - 683 W/m² -

* Rain latest hour (hover to see other rain measurements)
** Current wind speed in m/s (hover to see current wind gust speed)